Location: Bun Machan
(52.1403°N, 7.3744°W)
Time: 17:15:34
(UTC+00:00)

CZ-4C R/B - Pass Details

Date: 14 July 2020
Orbit: 464 x 636 km, 98.0° (Epoch: 12 August)

Event Time Altitude Azimuth Distance (km) Brightness Sun altitude
Exits shadow 02:47:32 16° 210° (SSW) 1,426 4.8 -10.8°
Maximum altitude 02:49:55 30° 263° (W) 952 4.2 -10.6°
Drops below altitude 10° 02:53:11 10° 326° (NW) 1,709 6.1 -10.4°
Sets 02:55:24 0° 337° (NNW) 2,573 7.3 -10.2°
